Home   Weather   Boston   Past weeks

Flag for USA Past Weather in Boston, Massachusetts, USA — Yesterday and Last 2 Weeks

Now
39 °F

Broken clouds.


Feels Like: 33 °F
Forecast: 32 / 42 °F
Wind: 8 mph from Southwest

Location: Logan International Airport

Current Time: Dec 8, 2016 at 9:26:28 am

Latest Report: Dec 8, 2016 at 8:54 am


Visibility: 10 mi

Pressure: 29.93 "Hg

Humidity: 86%

Dew Point: 35 °F

Location of BostonLocation

Past Weather in Boston — Graph

°F

Boston Temperature Yesterday

Maximum temperature yesterday: 42 °F (at 6:54 pm)
Minimum temperature yesterday: 37 °F (at 9:54 am)
Average temperature yesterday: 40 °F

High & Low Weather Summary for the Past Weeks

 TemperatureHumidityPressure
High58 °F (Nov 29, 10:54 pm)100% (Nov 25, 8:54 am)30.37 "Hg (Nov 25, 8:54 am)
Low31 °F (Dec 5, 12:54 am)43% (Nov 23, 12:54 pm)29.40 "Hg (Dec 1, 5:54 am)
Average41 °F75%30.02 "Hg
* Reported Nov 23 7:54 am — Dec 8 7:54 am, Boston, Weather by CustomWeather, © 2016

Note: Actual official high and low records may vary slightly from our data, if they occured in-between our weather recording intervals... More about our weather records

Advertising

Boston Weather History for the Previous 24 Hours

Scroll right to see more
 ConditionsComfort  
Time TempWeatherWind HumidityBarometerVisibility
7:54 am
Thu, Dec 8
37 °FPartly sunny.8 mph89%29.93 "Hg10 mi
6:54 am36 °FPartly cloudy.5 mph89%29.93 "Hg10 mi
5:54 am34 °FPassing clouds.6 mph92%29.95 "Hg10 mi
4:54 am36 °FPassing clouds.8 mph89%29.96 "Hg10 mi
3:54 am37 °FPassing clouds.8 mph86%29.95 "Hg10 mi
2:54 am39 °FClear.9 mph79%29.96 "Hg10 mi
1:54 am37 °FClear.7 mph89%29.96 "Hg10 mi
12:54 am39 °FClear.9 mph86%29.98 "Hg10 mi
11:54 pm
Wed, Dec 7
37 °FPassing clouds.8 mph89%29.97 "Hg10 mi
10:54 pm38 °FPassing clouds.8 mph90%29.98 "Hg10 mi
9:54 pm41 °FPassing clouds.6 mph76%29.99 "Hg10 mi
7:54 pm39 °FPassing clouds.9 mph89%30.00 "Hg10 mi
6:54 pm42 °FPassing clouds.8 mph82%30.01 "Hg10 mi
5:54 pm41 °FMostly cloudy.No wind93%30.01 "Hg10 mi
4:54 pm41 °FMostly cloudy.5 mph89%29.99 "Hg10 mi
3:54 pm41 °FMostly cloudy.No wind86%29.98 "Hg8 mi
2:54 pm40 °FLow clouds.3 mph93%29.96 "Hg7 mi
1:54 pm40 °FFog.3 mph93%29.95 "Hg6 mi
12:54 pm41 °FFog.3 mph89%29.95 "Hg6 mi
11:54 am39 °FFog.5 mph96%29.97 "Hg5 mi
10:54 am38 °FFog.7 mph97%30.00 "Hg4 mi
9:54 am37 °FFog.8 mph96%30.00 "Hg4 mi
Weather by CustomWeather, © 2016

See weather overviewHow to use our weather pages